IRIDIUM 106 1 41917U 17003A 25342.76697065 -.00000140 00000+0 -57157-4 0 9990 2 41917 86.3991 168.1126 0002102 100.8295 259.3137 14.34217334465912 IRIDIUM 103 1 41918U 17003B 25342.75427764 .00000155 00000+0 48190-4 0 9998 2 41918 86.3987 168.0186 0001566 91.8040 268.3335 14.34219575465934 IRIDIUM 109 1 41919U 17003C 25342.76064475 .00000180 00000+0 57326-4 0 9995 2 41919 86.3988 168.0722 0001868 89.7149 270.4261 14.34219108465904 IRIDIUM 102 1 41920U 17003D 25342.79867933 .00000216 00000+0 70145-4 0 9994 2 41920 86.3987 167.9841 0002023 86.5980 273.5447 14.34217169465991 IRIDIUM 105 1 41921U 17003E 25342.83918487 .00000645 00000+0 22309-3 0 9995 2 41921 86.3973 136.4606 0001872 93.3821 266.7589 14.34220282467856 IRIDIUM 104 1 41922U 17003F 25342.81136697 .00000146 00000+0 44953-4 0 9995 2 41922 86.3988 168.0185 0001737 81.6772 278.4620 14.34217869465986 IRIDIUM 114 1 41923U 17003G 25342.81769534 .00000117 00000+0 34694-4 0 9997 2 41923 86.3987 167.9997 0001781 87.3811 272.7588 14.34217905465960 IRIDIUM 108 1 41924U 17003H 25342.84599969 -.00000016 00000+0 -12686-4 0 9991 2 41924 86.3972 136.3481 0002023 91.3891 268.7536 14.34217541467827 IRIDIUM 112 1 41925U 17003J 25342.80502279 -.00000034 00000+0 -19268-4 0 9999 2 41925 86.3989 167.8559 0001796 84.2393 275.9008 14.34216954465981 IRIDIUM 111 1 41926U 17003K 25342.79234036 -.00000143 00000+0 -57995-4 0 9991 2 41926 86.3990 167.9274 0001792 91.4724 268.6677 14.34217255465967 IRIDIUM 113 1 42803U 17039A 25342.63276843 .00000518 00000+0 17789-3 0 9990 2 42803 86.3979 41.8124 0001988 92.8939 267.2484 14.34217988443873 IRIDIUM 123 1 42804U 17039B 25342.74401600 .00000535 00000+0 18410-3 0 9995 2 42804 86.3969 73.2499 0001952 105.1998 254.9413 14.34216463442658 IRIDIUM 120 1 42805U 17039C 25342.62642676 .00000125 00000+0 37573-4 0 9990 2 42805 86.3966 41.6221 0002392 99.8017 260.3448 14.34216481443861 IRIDIUM 115 1 42806U 17039D 25342.66675462 .00000734 00000+0 21209-3 0 9998 2 42806 86.4504 41.7079 0002307 108.7126 251.4325 14.43282413446787 IRIDIUM 118 1 42807U 17039E 25342.77571316 .00000562 00000+0 19373-3 0 9992 2 42807 86.3968 73.2355 0001932 95.9146 264.2270 14.34225952442658 IRIDIUM 117 1 42808U 17039F 25342.79475296 .00000485 00000+0 16626-3 0 9997 2 42808 86.3964 73.1876 0001930 99.5247 260.6167 14.34213566442688 IRIDIUM 126 1 42809U 17039G 25342.68058755 .00000501 00000+0 17167-3 0 9993 2 42809 86.3970 73.2827 0001844 97.1988 262.9418 14.34216001442640 IRIDIUM 124 1 42810U 17039H 25342.80857059 .00000910 00000+0 26439-3 0 9999 2 42810 86.4493 9.9514 0002177 98.0741 262.0707 14.43288243447654 IRIDIUM 128 1 42811U 17039J 25342.81086425 .00000494 00000+0 16929-3 0 9992 2 42811 86.3961 104.7617 0002294 101.6390 258.5064 14.34215817442695 IRIDIUM 121 1 42812U 17039K 25342.76938720 .00000341 00000+0 11462-3 0 9999 2 42812 86.3969 73.2719 0002190 96.1096 264.0349 14.34217777442531 IRIDIUM 133 1 42955U 17061A 25342.63327550 .00000040 00000+0 72340-5 0 9991 2 42955 86.3964 104.9494 0002097 95.6081 264.5354 14.34215359427460 IRIDIUM 100 1 42956U 17061B 25342.83622543 .00000621 00000+0 21452-3 0 9995 2 42956 86.3962 104.7873 0001962 97.9477 262.1942 14.34222360427492 IRIDIUM 122 1 42957U 17061C 25342.80452220 -.00000031 00000+0 -18300-4 0 9992 2 42957 86.3963 104.8003 0001800 97.0461 263.0940 14.34216984427498 IRIDIUM 129 1 42958U 17061D 25342.62058284 .00000235 00000+0 76761-4 0 9994 2 42958 86.3963 104.9420 0001876 84.7889 275.3521 14.34219361427485 IRIDIUM 119 1 42959U 17061E 25342.79818025 .00000417 00000+0 14182-3 0 9990 2 42959 86.3963 104.8628 0001770 92.6414 267.4985 14.34216792427526 IRIDIUM 107 1 42960U 17061F 25342.81720740 .00000531 00000+0 18260-3 0 9999 2 42960 86.3964 104.8752 0001831 106.8855 253.2542 14.34218224427537 IRIDIUM 132 1 42961U 17061G 25342.82354442 .00000598 00000+0 20639-3 0 9999 2 42961 86.3963 104.8532 0001972 98.8022 261.3397 14.34221637427535 IRIDIUM 136 1 42962U 17061H 25342.78549507 -.00000175 00000+0 -69483-4 0 9997 2 42962 86.3965 104.8752 0001703 93.5706 266.5685 14.34216115427548 IRIDIUM 139 1 42963U 17061J 25342.79183764 .00000362 00000+0 12205-3 0 9993 2 42963 86.3965 104.9311 0001982 100.1470 259.9950 14.34217815427553 IRIDIUM 125 1 42964U 17061K 25342.84890942 .00000621 00000+0 21459-3 0 9992 2 42964 86.3967 104.9648 0001467 106.2833 253.8524 14.34221949427572 IRIDIUM 135 1 43070U 17083A 25342.68350650 .00000141 00000+0 43180-4 0 9997 2 43070 86.3973 41.6400 0002208 93.7199 266.4249 14.34219074416848 IRIDIUM 138 1 43071U 17083B 25342.63911068 .00000093 00000+0 26272-4 0 9998 2 43071 86.3986 41.3246 0001812 88.7695 271.3709 14.34217626416828 IRIDIUM 116 1 43072U 17083C 25342.67716593 .00000484 00000+0 16563-3 0 9994 2 43072 86.3971 41.6312 0002426 99.7566 260.3904 14.34216942416860 IRIDIUM 130 1 43073U 17083D 25342.64545448 .00000285 00000+0 94658-4 0 9992 2 43073 86.3979 41.9011 0002291 103.2441 256.9011 14.34214103416802 IRIDIUM 151 1 43074U 17083E 25342.68985197 .00000199 00000+0 64032-4 0 9993 2 43074 86.3972 41.6792 0002187 95.6567 264.4878 14.34216819416830 IRIDIUM 134 1 43075U 17083F 25342.65812448 .00000514 00000+0 17663-3 0 9997 2 43075 86.3977 41.6983 0002152 101.5751 258.5686 14.34217528416796 IRIDIUM 137 1 43076U 17083G 25342.74059444 .00000232 00000+0 75778-4 0 9996 2 43076 86.3976 41.7524 0002709 93.3400 266.8106 14.34217403416875 IRIDIUM 141 1 43077U 17083H 25342.66447858 .00000010 00000+0 -35534-5 0 9990 2 43077 86.3972 41.6254 0001924 95.9430 264.1985 14.34218333416868 IRIDIUM 153 1 43078U 17083J 25342.82596756 .00000538 00000+0 18499-3 0 9994 2 43078 86.3972 10.0487 0001832 93.1439 266.9967 14.34223262417996 IRIDIUM 131 1 43079U 17083K 25342.72156546 .00000170 00000+0 53515-4 0 9994 2 43079 86.3975 41.7750 0002100 93.2366 266.9070 14.34217375416805 IRIDIUM 144 1 43249U 18030A 25342.69277169 .00000378 00000+0 12791-3 0 9997 2 43249 86.3970 10.0379 0002297 96.2002 263.9455 14.34217952402835 IRIDIUM 149 1 43250U 18030B 25342.83865050 .00000204 00000+0 65932-4 0 9991 2 43250 86.3969 9.9462 0002159 93.8118 266.3325 14.34216708402878 IRIDIUM 157 1 43251U 18030C 25342.78790942 .00000263 00000+0 86759-4 0 9998 2 43251 86.3975 10.0165 0002261 89.3210 270.8245 14.34215576402846 IRIDIUM 140 1 43252U 18030D 25342.80693847 .00000209 00000+0 67600-4 0 9992 2 43252 86.3971 10.0215 0002207 95.7445 264.4002 14.34217689402904 IRIDIUM 145 1 43253U 18030E 25342.79425311 .00000131 00000+0 39708-4 0 9992 2 43253 86.3973 9.9995 0002448 99.5712 260.5760 14.34216854402838 IRIDIUM 146 1 43254U 18030F 25342.63568789 .00000300 00000+0 10010-3 0 9995 2 43254 86.3969 10.0785 0002289 96.2850 263.8606 14.34217367402828 IRIDIUM 148 1 43255U 18030G 25342.81327418 .00000275 00000+0 91031-4 0 9992 2 43255 86.3974 10.0440 0002205 91.7569 268.3879 14.34216101402881 IRIDIUM 142 1 43256U 18030H 25342.78156772 .00000579 00000+0 19977-3 0 9997 2 43256 86.3969 9.9537 0002507 99.2756 260.8723 14.34218676402846 IRIDIUM 150 1 43257U 18030J 25342.81962207 .00000144 00000+0 44457-4 0 9990 2 43257 86.3971 10.0477 0002301 96.7267 263.4191 14.34216043402874 IRIDIUM 143 1 43258U 18030K 25342.80059454 .00000213 00000+0 69041-4 0 9994 2 43258 86.3970 10.1409 0002384 98.3035 261.8431 14.34216555402802 IRIDIUM 161 1 43478U 18047C 25342.57851318 .00000246 00000+0 67149-4 0 9992 2 43478 86.4507 168.1180 0001946 83.1817 276.9606 14.43277979397649 IRIDIUM 152 1 43479U 18047D 25342.56400652 .00000107 00000+0 31250-4 0 9993 2 43479 86.3983 167.9846 0001840 87.1060 273.0346 14.34218555395169 IRIDIUM 147 1 43480U 18047E 25342.77965267 -.00000088 00000+0 -38426-4 0 9998 2 43480 86.3989 167.8963 0001954 85.5456 274.5963 14.34216677395190 IRIDIUM 110 1 43481U 18047F 25342.78599229 .00000113 00000+0 33381-4 0 9993 2 43481 86.3986 167.9804 0001770 75.5567 284.5825 14.34218631395180 IRIDIUM 162 1 43482U 18047G 25342.57220918 .00000123 00000+0 30641-4 0 9994 2 43482 86.4506 168.0141 0001685 93.5260 266.6134 14.43282818397635 IRIDIUM 160 1 43569U 18061A 25342.80160262 .00000272 00000+0 90123-4 0 9993 2 43569 86.3973 136.3970 0001978 86.2522 273.8900 14.34217351386089 IRIDIUM 166 1 43570U 18061B 25342.82696757 .00000243 00000+0 79562-4 0 9992 2 43570 86.3977 136.3392 0002185 92.8282 267.3164 14.34216055386114 IRIDIUM 158 1 43571U 18061C 25342.79525703 .00000395 00000+0 13385-3 0 9999 2 43571 86.3973 136.3627 0001753 94.6035 265.5361 14.34217607386076 IRIDIUM 165 1 43572U 18061D 25342.82062797 .00000314 00000+0 10505-3 0 9995 2 43572 86.3974 136.3946 0002098 91.9178 268.2258 14.34215899386103 IRIDIUM 155 1 43573U 18061E 25342.85234191 .00000558 00000+0 19231-3 0 9993 2 43573 86.3969 136.2600 0001979 99.0637 261.0783 14.34217145386076 IRIDIUM 154 1 43574U 18061F 25342.83332894 .00000603 00000+0 20814-3 0 9991 2 43574 86.3973 136.3920 0002038 91.4411 268.7018 14.34219755386121 IRIDIUM 163 1 43575U 18061G 25342.81428786 .00000265 00000+0 87449-4 0 9998 2 43575 86.3971 136.3214 0001760 91.4215 268.7182 14.34218816386094 IRIDIUM 156 1 43576U 18061H 25342.71914831 .00000608 00000+0 21003-3 0 9993 2 43576 86.3971 136.3683 0002024 98.9014 261.2411 14.34216841386075 IRIDIUM 164 1 43577U 18061J 25342.83966117 .00000374 00000+0 12647-3 0 9995 2 43577 86.3976 136.3551 0002182 91.3927 268.7519 14.34221667386130 IRIDIUM 159 1 43578U 18061K 25342.80794028 .00000781 00000+0 27177-3 0 9999 2 43578 86.3971 136.3097 0001999 85.4874 274.6550 14.34215452386092 IRIDIUM 180 1 43922U 19002A 25342.80744197 .00000206 00000+0 66424-4 0 9991 2 43922 86.3966 73.1851 0001994 92.8467 267.2957 14.34216973361709 IRIDIUM 176 1 43923U 19002B 25342.78142001 .00001951 00000+0 30539-3 0 9990 2 43923 86.6088 73.1671 0002224 99.0709 261.0760 14.72268950371230 IRIDIUM 168 1 43924U 19002C 25342.80109869 .00000056 00000+0 12942-4 0 9993 2 43924 86.3971 73.2598 0001977 96.7996 263.3425 14.34216107361680 IRIDIUM 173 1 43925U 19002D 25342.78841211 .00000777 00000+0 27044-3 0 9993 2 43925 86.3965 73.1615 0001877 99.2658 260.8750 14.34217251361667 IRIDIUM 169 1 43926U 19002E 25342.80853409 .00000772 00000+0 24591-3 0 9998 2 43926 86.4218 104.8039 0001680 129.6402 230.4945 14.38616038362850 IRIDIUM 172 1 43927U 19002F 25342.78207037 .00000402 00000+0 13632-3 0 9990 2 43927 86.3965 73.1715 0001986 91.6535 268.4888 14.34217119361671 IRIDIUM 175 1 43928U 19002G 25342.57280557 .00001508 00000+0 23511-3 0 9991 2 43928 86.1505 15.8959 0003124 97.1651 262.9921 14.72248807371194 IRIDIUM 171 1 43929U 19002H 25342.76304446 -.00000064 00000+0 -30001-4 0 9998 2 43929 86.3974 73.4650 0002158 101.4908 258.6530 14.34216833361666 IRIDIUM 170 1 43930U 19002J 25342.78763213 .00001147 00000+0 17798-3 0 9991 2 43930 86.6085 73.1681 0002260 91.5561 268.5915 14.72247805371240 IRIDIUM 167 1 43931U 19002K 25342.75670146 -.00000031 00000+0 -18108-4 0 9991 2 43931 86.3966 73.2030 0002168 108.3359 251.8073 14.34216283361663 IRIDIUM 181 1 56726U 23068S 25342.79726522 .00000660 00000+0 18994-3 0 9996 2 56726 86.4509 136.3722 0002574 86.7288 273.4208 14.43319706134979 IRIDIUM 177 1 56727U 23068T 25342.75365575 .00002736 00000+0 35641-3 0 9994 2 56727 86.1968 59.2230 0002303 85.7370 274.4114 14.80242176138196 IRIDIUM 174 1 56728U 23068U 25342.77526216 .00002221 00000+0 34831-3 0 9997 2 56728 86.6093 73.3019 0002277 88.0791 272.0686 14.72257112138001 IRIDIUM 178 1 56729U 23068V 25342.81036153 .00002823 00000+0 36811-3 0 9997 2 56729 86.6537 104.9404 0002413 99.5856 260.5638 14.80230191138203 IRIDIUM 179 1 56730U 23068W 25342.80498010 .00002835 00000+0 36969-3 0 9999 2 56730 86.6779 113.3538 0002516 93.5550 266.5959 14.80228873138200